Content
SEND FEEDBACK

Daily
Averages
Monthly
Summary
Switzerland

ZÜRICH, SWITZERLAND


Home > Europe > Switzerland
Elevation: 1867 feet     Latitude: 47 23N     Longitude: 008 34E

WEATHER
 
SELECT A DAY
Number of Records: 290,761;   Date Range: 7/1/96 - 12/20/14
 
SHARE

PRINT THIS DATA

[ ← Previous Day ]
WEATHER ALMANAC - MAY 10, 2013
[ Next Day → ]
[ °C ]   °F
Weather ElementAverageHighLow
Temperature53.2 °F57.2 °F (1:50 am)48.2 °F (11:50 pm)
Dewpoint49.1 °F55.4 °F (1:50 am)44.6 °F (8:50 pm)
Humidity86.9 %100 % (3:50 am)72 % (8:50 pm)
Barometer30.03 in30.09 in (9:50 pm)29.95 in (1:50 am)
Wind Speed5.2 mph13.8 mph (2:50 pm)
Weather ElementAverage
Visibility5.8 mi
Wind DirectionS (183.8 °)

Weather ElementTotal
Precipitation---
Heating Degree Days12.3 (Base 65)
Growing Degree Days2.7 (Base 50)
Averaged from 21 records on May 10, 2013
WEATHER CONDITIONS BREAKOUT
WIND DIRECTION BREAKOUT
WEATHER BY HOUR - MAY 10, 2013
[ °C ]   °F
Local TimeTemperatureDewpointHumidityBarometerVisibilityWind DirectionWind SpeedGust SpeedPrecipitationEventsConditions
1:50 AM57.2 °F55.4 °F94 %29.95 in6.2 miCalmRainLight Rain Showers
2:50 AM55.4 °F53.6 °F94 %29.98 in4.3 miCalmRainRain
3:50 AM53.6 °F53.6 °F100 %29.98 in3.1 miVariable2.3 mphRainRain
4:50 AM53.6 °F51.8 °F94 %29.98 inSE (140°)2.3 mphRainRain
5:50 AM53.6 °F53.6 °F100 %29.98 in4.3 miCalmRainRain
6:50 AM53.6 °F51.8 °F94 %29.98 in6.2 miCalmRainRain
7:50 AM53.6 °F51.8 °F94 %30.01 in5.6 miWNW (300°)2.3 mphRainRain
8:50 AM53.6 °F50.0 °F88 %30.01 in6.2 miNW (310°)10.4 mphRainLight Rain
10:50 AM53.6 °F50.0 °F88 %30.04 in6.2 miWNW (300°)8.1 mphRainLight Rain
11:50 AM53.6 °F50.0 °F88 %30.06 in6.2 miNW (310°)6.9 mphRainLight Rain
12:50 PM53.6 °F50.0 °F88 %30.06 in6.2 miWNW (300°)9.2 mphRainLight Rain Showers
1:50 PM51.8 °F48.2 °F88 %30.06 in6.2 miNW (310°)12.7 mphRainLight Rain Showers
2:50 PM53.6 °F46.4 °F77 %30.06 in6.2 miNW (320°)13.8 mphOvercast
3:50 PM53.6 °F46.4 °F77 %30.06 in6.2 miNW (320°)11.5 mphOvercast
4:50 PM53.6 °F46.4 °F77 %30.06 in6.2 miNW (310°)9.2 mphOvercast
5:50 PM53.6 °F46.4 °F77 %30.06 in6.2 miWSW (250°)3.5 mphRainLight Rain Showers
7:50 PM53.6 °F46.4 °F77 %30.06 in6.2 miSE (140°)4.6 mphOvercast
8:50 PM53.6 °F44.6 °F72 %30.06 in6.2 miSSE (160°)3.5 mphMostly Cloudy
9:50 PM50.0 °F44.6 °F82 %30.09 in6.2 miSE (140°)3.5 mphMostly Cloudy
10:50 PM50.0 °F44.6 °F82 %30.09 in6.2 miESE (120°)2.3 mphMostly Cloudy
11:50 PM48.2 °F46.4 °F93 %30.09 in6.2 miSE (130°)2.3 mphPartly Cloudy
Hourly data recorded from LSMD, located miles away from Zürich, Switzerland







STORIES FROM OUR PARTNERS